Simultaneous Nadir Overpasses (SNOs) Predictions

Prediction of SNOs between GOES-16 and METOP-C Satellite Orbit:

Table of predicted SNOs for the next 14.0 days since TLE Epoch: 4/12/2019
Index Date Time (GOES-16) GOES-16 Lat,Lon METOP-C Lat,Lon Distance(km) Time Diff (sec)
1 04/13/2019 02:43:07 0.02, -75.20 -0.54, -77.73 288.38 80
2 04/14/2019 02:19:49 0.03, -75.20 0.59, -72.74 280.59 80
3 04/15/2019 14:38:41 -0.03, -75.21 0.42, -77.30 237.34 80
4 04/16/2019 14:20:41 -0.02, -75.22 -0.66, -72.30 332.26 80
5 04/18/2019 02:39:44 0.02, -75.21 -0.34, -76.90 192.07 80
6 04/19/2019 02:16:24 0.00, -75.22 0.73, -71.90 378.30 80
7 04/20/2019 14:37:56 -0.00, -75.25 0.26, -76.47 138.32 80
8 04/21/2019 14:14:38 -0.01, -75.26 -0.87, -71.48 431.78 80
9 04/23/2019 02:36:19 0.02, -75.27 -0.19, -76.07 91.65 80
10 04/24/2019 02:13:01 0.02, -75.28 0.94, -71.08 478.71 80
11 04/25/2019 14:34:33 -0.02, -75.32 0.05, -75.64 37.03 80




NCC Satellite Simultaneous Nadir Overpasses (SNOs) Prediction Service
